Location: Kalisz
(51.7636°N, 18.0893°E)
Time: 18:42:43
(UTC+02:00)

ISS - Pass Details

Date: 23 March 2019
Orbit: 408 x 410 km, 51.6° (Epoch: 27 April)

Event Time Altitude Azimuth Distance (km) Brightness Sun altitude
Rises 20:17:32 0° 241° (WSW) 2,331 0.4 -20.3°
Reaches altitude 10° 20:19:38 10° 236° (SW) 1,471 -0.7 -20.6°
Enters shadow 20:21:29 29° 220° (SW) 784 -2.4 -20.8°
